Location: White Ridge parking lot
(35.4984°N, 106.8413°W)
Time: 23:15:30
(UTC-07:00)

XW-2B - Pass Details

Date: 25 October 2019
Orbit: 507 x 528 km, 97.5° (Epoch: 14 November)

Event Time Altitude Azimuth Distance (km) Brightness Sun altitude
Rises 19:07:46 0° 197° (SSW) 2,624 ? -10.4°
Reaches altitude 10° 19:10:14 10° 214° (SW) 1,738 ? -10.9°
Maximum altitude 19:13:07 21° 264° (W) 1,200 ? -11.5°
Drops below altitude 10° 19:16:00 10° 315° (NW) 1,739 ? -12.0°
Sets 19:18:29 0° 332° (NNW) 2,626 ? -12.5°
